This demonstration page uses our WeatherBlox Daily Observations layout. Learn more.

Left ArrowRight Arrow

39.92423, -83.80882

Hourly Observations for March 13, 2022

Temp ( °F °C ) Dew Point ( °F °C ) Humidity (%) Winds ( mph kmh ) Pressure ( in mb ) Visibility ( mi km ) Precip ( " mm )
12:56 am 00:56 Clear 13 -10.6 8 -13.3 81 81 SW 6 9 30.27 1025 10 16 0.00 0.00
1:56 am 01:56 Clear 13 -10.6 8 -13.3 81 81 SSW 3 6 30.27 1025 10 16 0.00 0.00
3:56 am 03:56 Clear 13 -10.6 8 -13.3 81 81 S 3 6 30.26 1025 10 16 0.00 0.00
4:56 am 04:56 Partly Cloudy 15 -9.4 10 -12.2 80 80 SSW 6 9 30.24 1024 10 16 0.00 0.00
5:56 am 05:56 Partly Cloudy 16 -8.9 10 -12.2 77 77 S 8 13 30.22 1024 10 16 0.00 0.00
6:56 am 06:56 Cloudy 18 -7.8 12 -11.1 77 77 S 9 15 30.21 1023 10 16 0.00 0.00
7:56 am 07:56 Cloudy 21 -6.1 12 -11.1 68 68 SSW 15 24 30.18 1022 10 16 0.00 0.00
8:56 am 08:56 Cloudy 23 -5 13 -10.6 65 65 S 14 22 30.15 1021 10 16 0.00 0.00
9:56 am 09:56 Cloudy 25 -3.9 14 -10 63 63 SSW 12 19 30.15 1021 10 16 0.00 0.00
10:56 am 10:56 Mostly Cloudy 29 -1.7 16 -8.9 58 58 SSW 16 26 30.11 1020 10 16 0.00 0.00
11:56 am 11:56 Mostly Cloudy 31 -0.6 18 -7.8 59 59 SW 21 33 30.10 1019 10 16 0.00 0.00
12:56 pm 12:56 Mostly Cloudy 34 1.1 20 -6.7 56 56 SW 22 35 30.09 1019 10 16 0.00 0.00
1:56 pm 13:56 Cloudy 37 2.8 23 -5 57 57 SW 22 35 30.09 1019 10 16 0.00 0.00
2:56 pm 14:56 Sunny 42 5.6 27 -2.8 55 55 WSW 18 30 30.07 1018 10 16 0.00 0.00
3:56 pm 15:56 Sunny 44 6.7 27 -2.8 51 51 WSW 20 31 30.06 1018 10 16 0.00 0.00
4:56 pm 16:56 Sunny 46 7.8 28 -2.2 50 50 WSW 18 30 30.07 1018 10 16 0.00 0.00
5:56 pm 17:56 Sunny 47 8.3 28 -2.2 48 48 SW 16 26 30.09 1019 10 16 0.00 0.00
6:56 pm 18:56 Sunny 46 7.8 29 -1.7 51 51 WSW 10 17 30.11 1020 10 16 0.00 0.00
7:56 pm 19:56 Clear 42 5.6 28 -2.2 58 58 SW 8 13 30.14 1021 10 16 0.00 0.00
8:56 pm 20:56 Clear 40 4.4 27 -2.8 60 60 SSW 5 7 30.16 1022 10 16 0.00 0.00
9:56 pm 21:56 Clear 40 4.4 27 -2.8 60 60 SSW 6 9 30.20 1023 10 16 0.00 0.00
10:56 pm 22:56 Clear 39 3.9 27 -2.8 62 62 SSW 7 11 30.22 1023 10 16 0.00 0.00
11:56 pm 23:56 Clear 39 3.9 28 -2.2 65 65 SSW 7 11 30.23 1024 10 16 0.00 0.00

Powered by AerisWeather